Weather History for Luxor, Egypt

Change the Weather History Date:

Monday, May 27, 2013

  Actual Average Record
Temperature  
Mean Temperature 90 °F -  
Max Temperature 106 °F 102 °F 113 °F (2001)
Min Temperature 75 °F 74 °F 69 °F (2000)
Cooling Degree Days 26    
Growing Degree Days 40 (Base 50)    
Moisture  
Dew Point 48 °F    
Average Humidity 22    
Maximum Humidity 39    
Minimum Humidity 8    
Precipitation  
Precipitation 0.00 in 0.00 in - ()
Sea Level Pressure  
Sea Level Pressure 29.84 in    
Wind  
Wind Speed 2 mph ()    
Max Wind Speed 7 mph    
Max Gust Speed -    
Visibility 6.0 miles    
Events      
Averages and records for this station are not official NWS values.
T = Trace of Precipitation, MM = Missing Value Source: Averaged Metar Reports

Daily Weather History Graph

Daily Weather History Graph

Search for Another Location

Airport:

Trip Planner

Search our weather history database for the weather conditions in past years. The results will help you decide how hot, cold, wet, or windy it might be!

Date:

Astronomy

May. 27, 2013 Rise Set
Actual Time 4:59 AM EET 6:33 PM EET
Civil Twilight 4:33 AM EET 6:59 PM EET
Nautical Twilight 4:03 AM EET 7:29 PM EET
Astronomical Twilight 3:31 AM EET 8:01 PM EET
Moon 9:01 PM EET (5/27) 7:09 AM EET (5/27)
Length of Visible Light 14h 25m
Length of Day
13h 34m
Waning Gibbous, 93% of the Moon is Illuminated
May 27
Waning Gibbous
May 31
Last Quarter
Jun 8
New
Jun 16
First Quarter
Jun 23
Full

Hourly Weather History & Observations

Time (EET) Temp. Heat Index Dew Point Humidity Pressure Visibility Wind Dir Wind Speed Gust Speed Precip Events Conditions
12:00 AM 86.0 °F - 48.2 °F 27% 29.83 in - Calm Calm - N/A   Clear
1:00 AM 84.2 °F - 44.6 °F 25% 29.83 in - SSE 2.3 mph - N/A   Clear
2:00 AM 82 °F - 45 °F 18% 29.82 in 6 mi SSE 3.5 mph - -  
2:00 AM 82.4 °F - 44.6 °F 26% 29.83 in - SSE 3.5 mph - N/A   Clear
3:00 AM 80.6 °F - 44.6 °F 28% 29.83 in - South 3.5 mph - N/A   Clear
4:00 AM 78.8 °F - 48.2 °F 34% 29.83 in - South 1.2 mph - N/A   Clear
5:00 AM 77.0 °F - 50.0 °F 39% 29.83 in - Calm Calm - N/A   Clear
6:00 AM 77.0 °F - 48.2 °F 36% 29.86 in - Calm Calm - N/A   Clear
7:00 AM 82.4 °F - 50.0 °F 32% 29.86 in - SSW 2.3 mph - N/A   Clear
8:00 AM 87 °F - 51 °F 20% 29.87 in 6 mi Calm Calm - -  
8:00 AM 87.8 °F - 51.8 °F 29% 29.89 in - Calm Calm - N/A   Clear
9:00 AM 91.4 °F 89.1 °F 53.6 °F 28% 29.89 in - WNW 2.3 mph - N/A   Clear
10:00 AM 93.2 °F - 51.8 °F 24% 29.89 in - NNW 3.5 mph - N/A   Clear
11:00 AM 96.8 °F 94.4 °F 53.6 °F 23% 29.89 in - Calm Calm - N/A   Clear
12:00 PM 98.6 °F 97.2 °F 55.4 °F 24% 29.86 in - North 3.5 mph - N/A   Clear
1:00 PM 102.2 °F - 48.2 °F 16% 29.86 in - North 5.8 mph - N/A   Clear
2:00 PM 105 °F - 48 °F 8% 29.81 in 6 mi NNW 6.9 mph - -  
2:00 PM 105.8 °F - 48.2 °F 14% 29.83 in - NNW 6.9 mph - N/A   Clear
3:00 PM 105.8 °F - 50.0 °F 15% 29.80 in - NNW 4.6 mph - N/A   Clear
4:00 PM 105.8 °F - 50.0 °F 15% 29.80 in - NNW 6.9 mph - N/A   Clear
5:00 PM 102.2 °F - 50.0 °F 17% 29.80 in - NNW 6.9 mph - N/A   Clear
6:00 PM 98.6 °F - 48.2 °F 18% 29.80 in - NNW 5.8 mph - N/A   Clear
7:00 PM 95.0 °F - 46.4 °F 19% 29.83 in - NNW 3.5 mph - N/A   Clear
8:00 PM 92 °F - 45 °F 11% 29.83 in 6 mi North 5.8 mph - -  
8:00 PM 91.4 °F - 44.6 °F 20% 29.83 in - North 5.8 mph - N/A   Clear
9:00 PM 89.6 °F - 42.8 °F 20% 29.86 in - North 6.9 mph - N/A   Clear
10:00 PM 86.0 °F - 42.8 °F 22% 29.89 in - North 2.3 mph - N/A   Clear
11:00 PM 84.2 °F - 41.0 °F 22% 29.89 in - North 2.3 mph - N/A   Clear